Previsão horária em Aadorf

Hoje, 14 Abril, Quarta-feira

Tempo Temperatura Precipitação Vento Pressão Humidade
00:00 -2°C° 0 mm 1 m/s 716 mmHg 81%
01:00 -3°C° 0 mm 1 m/s 715 mmHg 84%
02:00 -3°C° 0 mm 1 m/s 715 mmHg 85%
03:00 -3°C° 0 mm 1 m/s 715 mmHg 86%
04:00 -4°C° 0 mm 1 m/s 714 mmHg 87%
05:00 -3°C° 0 mm 1 m/s 715 mmHg 83%
06:00 -2°C° 0 mm 1 m/s 715 mmHg 79%
07:00 -1°C° 0 mm 1 m/s 715 mmHg 75%
08:00 -1°C° 0 mm 2 m/s 715 mmHg 66%
09:00 +1°C° 0 mm 3 m/s 714 mmHg 57%
10:00 +3°C° 0 mm 3 m/s 714 mmHg 47%
11:00 +4°C° 0 mm 3 m/s 714 mmHg 43%
12:00 +5°C° 0 mm 4 m/s 714 mmHg 39%
13:00 +6°C° 0 mm 4 m/s 713 mmHg 35%
14:00 +6°C° 0 mm 4 m/s 713 mmHg 36%
15:00 +6°C° 0 mm 4 m/s 713 mmHg 38%
16:00 +6°C° 0 mm 4 m/s 713 mmHg 39%
17:00 +4°C° 0 mm 3 m/s 713 mmHg 48%
18:00 +3°C° 0 mm 3 m/s 713 mmHg 57%
19:00 +1°C° 0 mm 3 m/s 713 mmHg 65%
20:00 +1°C° 0 mm 2 m/s 713 mmHg 70%
21:00 -1°C° 0 mm 2 m/s 713 mmHg 75%
22:00 0°C° 0 mm 1 m/s 713 mmHg 80%
23:00 -1°C° 0 mm 1 m/s 713 mmHg 82%

Amanhã, 15 Abril, Quinta-feira

Tempo Temperatura Precipitação Vento Pressão Humidade
00:00 -1°C° 0 mm 1 m/s 713 mmHg 84%
01:00 -2°C° 0 mm 1 m/s 713 mmHg 86%
02:00 -2°C° 0 mm 1 m/s 713 mmHg 87%
03:00 -3°C° 0 mm 1 m/s 713 mmHg 88%
04:00 -3°C° 0 mm 1 m/s 713 mmHg 88%
05:00 -3°C° 0 mm 0 m/s 713 mmHg 84%
06:00 -3°C° 0 mm 0 m/s 713 mmHg 80%
07:00 -2°C° 0 mm 0 m/s 714 mmHg 76%
08:00 +1°C° 0 mm 1 m/s 713 mmHg 68%
09:00 +2°C° 0 mm 2 m/s 713 mmHg 61%
10:00 +3°C° 0 mm 3 m/s 713 mmHg 53%
11:00 +4°C° 0.1 mm 3 m/s 713 mmHg 49%
12:00 +5°C° 0.1 mm 3 m/s 713 mmHg 45%
13:00 +7°C° 0.1 mm 3 m/s 712 mmHg 40%
14:00 +7°C° 0 mm 3 m/s 712 mmHg 40%
15:00 +6°C° 0 mm 4 m/s 712 mmHg 40%
16:00 +6°C° 0 mm 4 m/s 711 mmHg 39%
17:00 +5°C° 0 mm 4 m/s 711 mmHg 47%
18:00 +3°C° 0 mm 3 m/s 711 mmHg 54%
19:00 +2°C° 0 mm 3 m/s 711 mmHg 61%
20:00 +1°C° 0 mm 3 m/s 711 mmHg 67%
21:00 -1°C° 0 mm 2 m/s 711 mmHg 73%
22:00 -2°C° 0 mm 2 m/s 712 mmHg 78%
23:00 -3°C° 0 mm 2 m/s 711 mmHg 79%

Depois de amanhã, 16 Abril, Sexta-feira

Tempo Temperatura Precipitação Vento Pressão Humidade
00:00 -3°C° 0 mm 2 m/s 711 mmHg 80%
01:00 -3°C° 0 mm 2 m/s 711 mmHg 81%
02:00 -4°C° 0 mm 2 m/s 711 mmHg 82%
03:00 -2°C° 0 mm 1 m/s 711 mmHg 84%
04:00 -3°C° 0 mm 1 m/s 711 mmHg 86%
05:00 -2°C° 0 mm 1 m/s 711 mmHg 83%
06:00 -4°C° 0 mm 2 m/s 711 mmHg 80%
07:00 -3°C° 0 mm 2 m/s 711 mmHg 77%
08:00 -1°C° 0 mm 2 m/s 711 mmHg 68%
09:00 +1°C° 0 mm 3 m/s 711 mmHg 59%
10:00 +4°C° 0 mm 4 m/s 711 mmHg 50%
11:00 +5°C° 0 mm 4 m/s 710 mmHg 47%
12:00 +6°C° 0 mm 4 m/s 710 mmHg 44%
13:00 +7°C° 0 mm 4 m/s 710 mmHg 40%
14:00 +8°C° 0 mm 4 m/s 709 mmHg 41%
15:00 +8°C° 0 mm 4 m/s 709 mmHg 41%
16:00 +8°C° 0 mm 5 m/s 709 mmHg 42%
17:00 +6°C° 0 mm 4 m/s 709 mmHg 50%
18:00 +5°C° 0 mm 4 m/s 709 mmHg 59%
19:00 +3°C° 0 mm 4 m/s 710 mmHg 67%
20:00 +1°C° 0 mm 3 m/s 710 mmHg 75%
21:00 0°C° 0 mm 3 m/s 710 mmHg 82%
22:00 -2°C° 0 mm 2 m/s 711 mmHg 90%
23:00 -1°C° 0 mm 1 m/s 710 mmHg 92%

17 Abril, Sábado

Tempo Temperatura Precipitação Vento Pressão Humidade
00:00 -1°C° 0 mm 1 m/s 710 mmHg 93%
01:00 -2°C° 0 mm 1 m/s 710 mmHg 95%
02:00 -2°C° 0 mm 1 m/s 710 mmHg 95%
03:00 -2°C° 0 mm 1 m/s 710 mmHg 95%
04:00 -3°C° 0 mm 0 m/s 710 mmHg 96%
05:00 -1°C° 0 mm 1 m/s 710 mmHg 93%
06:00 0°C° 0 mm 1 m/s 710 mmHg 90%
07:00 +1°C° 0 mm 1 m/s 710 mmHg 87%
08:00 +2°C° 0 mm 1 m/s 710 mmHg 83%
09:00 +2°C° 0 mm 2 m/s 710 mmHg 79%
10:00 +3°C° 0 mm 2 m/s 710 mmHg 75%
11:00 +4°C° 0 mm 2 m/s 710 mmHg 72%
12:00 +4°C° 0 mm 2 m/s 710 mmHg 69%
13:00 +4°C° 0 mm 3 m/s 710 mmHg 66%
14:00 +4°C° 0.1 mm 3 m/s 709 mmHg 66%
15:00 +5°C° 0.1 mm 3 m/s 709 mmHg 66%
16:00 +5°C° 0.1 mm 3 m/s 709 mmHg 66%
17:00 +5°C° 0.1 mm 2 m/s 709 mmHg 72%
18:00 +5°C° 0.1 mm 2 m/s 709 mmHg 78%
19:00 +5°C° 0.1 mm 1 m/s 709 mmHg 84%
20:00 +4°C° 0 mm 1 m/s 709 mmHg 87%
21:00 +3°C° 0 mm 1 m/s 710 mmHg 91%
22:00 +2°C° 0 mm 1 m/s 710 mmHg 94%
23:00 +2°C° 0 mm 1 m/s 710 mmHg 94%

18 Abril, Domingo

Tempo Temperatura Precipitação Vento Pressão Humidade
00:00 +2°C° 0 mm 1 m/s 710 mmHg 94%
01:00 +3°C° 0 mm 1 m/s 710 mmHg 93%
02:00 +2°C° 0 mm 0 m/s 710 mmHg 94%
03:00 +2°C° 0 mm 0 m/s 710 mmHg 95%
04:00 +1°C° 0 mm 0 m/s 710 mmHg 96%
05:00 +2°C° 0 mm 0 m/s 710 mmHg 96%
06:00 +2°C° 0 mm 0 m/s 710 mmHg 96%
07:00 +2°C° 0 mm 0 m/s 710 mmHg 96%
08:00 +2°C° 0.1 mm 0 m/s 710 mmHg 93%
09:00 +3°C° 0.1 mm 0 m/s 710 mmHg 91%
10:00 +4°C° 0.1 mm 1 m/s 711 mmHg 88%
11:00 +5°C° 0.1 mm 1 m/s 711 mmHg 82%
12:00 +6°C° 0.1 mm 1 m/s 710 mmHg 77%
13:00 +7°C° 0.1 mm 1 m/s 710 mmHg 71%
14:00 +8°C° 0.1 mm 1 m/s 710 mmHg 68%
15:00 +8°C° 0.1 mm 1 m/s 710 mmHg 66%
16:00 +8°C° 0.1 mm 0 m/s 710 mmHg 63%
17:00 +7°C° 0.1 mm 0 m/s 710 mmHg 69%
18:00 +6°C° 0.1 mm 0 m/s 710 mmHg 74%
19:00 +5°C° 0.1 mm 0 m/s 710 mmHg 80%
20:00 +4°C° 0 mm 0 m/s 710 mmHg 83%
21:00 +3°C° 0 mm 0 m/s 710 mmHg 86%
22:00 +3°C° 0 mm 1 m/s 710 mmHg 88%
23:00 +3°C° 0 mm 1 m/s 710 mmHg 89%

19 Abril, Segunda-feira

Tempo Temperatura Precipitação Vento Pressão Humidade
00:00 +3°C° 0 mm 1 m/s 710 mmHg 90%
01:00 +2°C° 0 mm 1 m/s 709 mmHg 91%
02:00 +1°C° 0 mm 0 m/s 709 mmHg 91%
03:00 +1°C° 0 mm 0 m/s 709 mmHg 91%
04:00 +1°C° 0 mm 0 m/s 709 mmHg 91%
05:00 +2°C° 0.1 mm 0 m/s 709 mmHg 91%
06:00 +2°C° 0.1 mm 0 m/s 709 mmHg 90%
07:00 +3°C° 0.1 mm 0 m/s 708 mmHg 90%
08:00 +3°C° 0.1 mm 0 m/s 708 mmHg 88%
09:00 +4°C° 0.1 mm 0 m/s 708 mmHg 86%
10:00 +6°C° 0.1 mm 1 m/s 708 mmHg 84%
11:00 +6°C° 0 mm 1 m/s 708 mmHg 81%
12:00 +7°C° 0 mm 1 m/s 708 mmHg 78%
13:00 +8°C° 0 mm 1 m/s 707 mmHg 75%
14:00 +8°C° 0.1 mm 1 m/s 707 mmHg 71%
15:00 +9°C° 0.1 mm 1 m/s 706 mmHg 67%
16:00 +10°C° 0.1 mm 1 m/s 706 mmHg 63%
17:00 +9°C° 0.1 mm 1 m/s 706 mmHg 70%
18:00 +7°C° 0.1 mm 1 m/s 706 mmHg 78%
19:00 +6°C° 0.1 mm 1 m/s 705 mmHg 86%
20:00 +5°C° 0 mm 1 m/s 706 mmHg 88%
21:00 +4°C° 0 mm 1 m/s 706 mmHg 90%
22:00 +3°C° 0 mm 1 m/s 706 mmHg 91%
23:00 +3°C° 0 mm 1 m/s 705 mmHg 92%
Mostrar mais

Necessitamos do seu Consentimento

A Meteoprog e os seus Fornecedores de Serviços podem armazenar e aceder a dados pessoais como cookies, identificadores do dispositivo ou outras tecnologias semelhantes existentes no seu dispositivo e processar estes dados para personalizar conteúdos e anúncios, assim como funcionalidades nas redes sociais e análise de tráfego.

  • Armazenar e/ou aceder a informações no seu dispositivo

    Os cookies, identificadores do dispositivo ou outras informações podem ser armazenados ou acedidos no seu dispositivo, para os fins acima indicados.

  • Anúncios e conteúdos personalizados, medição de anúncios e conteúdos, dados sobre o público-alvo e desenvolvimento de produtos

    Os anúncios e os conteúdos podem ser personalizados com base num perfil. Podem ser adicionados dados adicionais para uma maior personalização dos anúncios e dos conteúdos. A eficácia dos anúncios e dos conteúdos pode ser medida. Podem ser obtidas informações sobre o público que visualizou os anúncios e os conteúdos. Estes dados podem ser usados para desenvolver ou melhorar sistemas, softwares ou a experiência do utilizador.

Ao clicar em "Eu concordo”, permitirá o uso de cookies, identificadores do dispositivo e web beacons mencionados ou outras tecnologias semelhantes. As configurações do navegador do seu dispositivo podem ser alteradas.

Para certos fins, podem ser invocados interesses legítimos ao invés de consentimento. Pode ler mais informação sobre este assunto na nossa Política de Privacidade e Cookies.